RS-44 & BREEZE-KM R/B

Last updated on Sun Aug 09 2026 00:03:15 GMT+0000 (Coordinated Universal Time)

1 44909U 19096E 26220.62022229 .00000003 00000+0 -32949-4 0 9992 2 44909 82.5237 304.8701 0217792 22.0806 338.9503 12.79748764309057
UTC large
Height (km)
Speed (km/s)
/
Latitude / Longitude
Inclination (degrees)
Orbital Period (minutes)
Azimuth
Elevation
Range (km)
Doppler Factor

Next 0 passes for location: London (51.5072 / 0.1276)

No passes found over London.
RS-44 & BREEZE-KM R/B